Preview of NWS' New Version of Forecast
This preview is not operational and should not be used for support decisions.

Regional Weather Roundup (RWR)

Issued by National Weather Service (NWS)

                            
000
ASUS46 KPQR 171610
RWROR 

OREGON REGIONAL WEATHER ROUNDUP
NATIONAL WEATHER SERVICE PORTLAND OR
900 AM PDT MON JUN 17 2019

NOTE: "FAIR" INDICATES FEW OR NO CLOUDS BELOW 12,000 FEET WITH
NO SIGNIFICANT WEATHER AND/OR OBSTRUCTIONS TO VISIBILITY.

ORZ001>013-171700-
NORTHWEST OREGON

  
CITY           SKY/WX    TMP DP  RH WIND       PRES   REMARKS
ASTORIA        CLOUDY    57  54  89 NW6       30.16S                  
TILLAMOOK      CLOUDY    55  52  88 CALM      30.18R                  
NEWPORT        CLOUDY    54  54 100 CALM      30.19R                  
PORTLAND       CLOUDY    61  51  70 VRB3      30.15R                  
VANCOUVER WA   CLOUDY    60  51  72 NE5       30.14R                  
SCAPPOOSE      CLOUDY    61  52  72 N7        30.14R                  
HILLSBORO      SUNNY     63  51  65 E3        30.14R                  
AURORA         PTSUNNY   63  52  67 CALM      30.14S                  
MCMINNVILLE    SUNNY     62  52  69 CALM      30.14R                  
SALEM          SUNNY     63  52  67 NE6       30.13R                  
CORVALLIS      SUNNY     65  54  67 N3        30.14R                  
EUGENE         MOSUNNY   64  53  67 N5        30.13S                  
$$

ORZ021-028-171700-
SOUTHWEST OREGON

  
CITY           SKY/WX    TMP DP  RH WIND       PRES   REMARKS
NORTH BEND     CLOUDY    55  54  94 N9        30.16R FOG              
BROOKINGS      SUNNY     79  51  37 VRB5      30.00R                  
ROSEBURG       SUNNY     67  52  58 NE6       30.11S                  
SEXTON SUMMIT  SUNNY     60  47  61 N8G22     30.14R                  
GRANTS PASS    FAIR      68  50  52 CALM      30.10S                  
MEDFORD        SUNNY     67  49  52 CALM      30.08S                  
$$

ORZ014>016-041-171700-
COLUMBIA GORGE

  
CITY           SKY/WX    TMP DP  RH WIND       PRES   REMARKS
TROUTDALE      CLOUDY    60  52  74 N5        30.14R                  
HOOD RIVER     SUNNY     68  52  56 W8G18     30.03F                  
THE DALLES     SUNNY     68  53  58 NW17G23   30.00R                  
$$

ORZ029>031-041-044-049-050-061>064-502-503-505>511-171700-
EASTERN OREGON

  
CITY           SKY/WX    TMP DP  RH WIND       PRES   REMARKS
MADRAS         SUNNY     66  43  42 MISG      30.10S                  
REDMOND        SUNNY     68  43  40 CALM      30.10S                  
BEND           SUNNY     70  39  32 NW3       30.10S                  
PRINEVILLE     SUNNY     64  41  42 CALM      30.10S                  
KLAMATH FALLS  SUNNY     68  40  35 NW6       30.11R                  
LAKEVIEW       SUNNY     64  40  41 N20G25    30.13R                  
HERMISTON      SUNNY     75  52  44 W8        29.98R                  
PENDLETON      SUNNY     72  48  42 W12       30.00S                  
JOHN DAY       SUNNY     66  41  40 CALM      30.10S                  
MEACHAM        SUNNY     65  44  46 CALM      30.08R                  
LA GRANDE      SUNNY     70  45  40 W17       30.04R                  
BAKER CITY     MOSUNNY   67  51  56 W5        30.05R                  
BURNS          MOSUNNY   68  38  33 NW10      30.10R                  
ROME             N/A     74  42  31 CALM      30.04S                  
ONTARIO        SUNNY     81  45  28 NW12      29.97R                  
$$